Weather Roundup
Issued by NWS Chicago, IL

Home | Current Version | Previous Version | Graphics & Text | Print | Product List | Glossary On
Versions: 1 2 3 4 5 6 7 8 9 10 11 12 13 14 15 16 17 18 19 20 21 22 23 24 25 26 27 28 29 30 31 32 33 34 35 36 37 38 39 40 41 42 43 44 45 46 47 48 49 50
000
NZUS59 KLOT 040606
HRRLOT

CHICAGO AREA WEATHER ROUNDUP
NATIONAL WEATHER SERVICE CHICAGO/ROMEOVILLE IL
100 AM CDT SAT JUL 04 2015

NOTE: "FAIR" INDICATES FEW OR NO CLOUDS BELOW 12,000 FEET WITH NO
SIGNIFICANT WEATHER AND/OR OBSTRUCTIONS TO VISIBILITY.

* THESE STATIONS ARE NOT UNDER NWS QUALITY CONTROL. THEY ALSO MAY NOT
  REPORT WEATHER SUCH AS PRECIPITATION OR FOG.

ILZ005-006-012>014-019>023-040700-
NORTHEAST ILLINOIS

CITY           SKY/WX    TMP DP  RH WIND       PRES   REMARKS
OHARE          PTCLDY    62  56  80 CALM      29.96R
6HR MIN TEMP:  61; 6HR MAX TEMP:  73;

MIDWAY         PTCLDY    64  55  72 W3        29.95S
6HR MIN TEMP:  64; 6HR MAX TEMP:  73;

AURORA         CLEAR     60  55  83 CALM      29.97R
6HR MIN TEMP:  60; 6HR MAX TEMP:  76;

WAUKEGAN       CLEAR     56  53  90 SW3       29.95S
6HR MIN TEMP:  54; 6HR MAX TEMP:  67;

DUPAGE AIRPORT CLEAR     60  55  83 CALM      29.96R
6HR MIN TEMP:  59; 6HR MAX TEMP:  76;

WHEELING       CLEAR     60  54  80 CALM      29.97S
6HR MIN TEMP:  59; 6HR MAX TEMP:  71;

NORTHERLY IS     N/A     63  54  72 SW1         N/A
$$

WIZ051-052-058>065-066-070>072-040700-
SOUTHEAST WISCONSIN

CITY           SKY/WX    TMP DP  RH WIND       PRES   REMARKS
MILWAUKEE      PTCLDY    62  52  69 SW7       29.94F
6HR MIN TEMP:  62; 6HR MAX TEMP:  67;

KENOSHA*       CLEAR     56  52  86 SW5       29.95F
RACINE*        CLEAR     59  52  77 SW5       29.96F
$$

INZ001>003-010>013-019-020-040700-
NORTHWEST INDIANA

CITY           SKY/WX    TMP DP  RH WIND       PRES   REMARKS
GARY*          NOT AVBL
MICHIGAN CITY* NOT AVBL
RENSSELAER*    NOT AVBL
$$

LMZ740>746-040700-
SOUTHERN LAKE MICHIGAN

STATION/POSITION TIME  SKY/WX   TEMP WIND        PRES    VSBY
                                AIR  DIR/SP/G
                 (UTC)          (F)  (DEG/KT/KT) (MB)    (MI)
HARRISON CRIB    0500            65  190/  5/  5   N/A
BURNHAM HARBOR   0600            64   CALM  /  2   N/A
CALUMET HARBOR   0500            64  230/  2/  2   N/A
BURNS HARBOR     0500            64   CALM  /  1 1014.6S
MICHIGAN CITY    0500            61   80/  2/  3   N/A
$$

ABBREVIATIONS USED IN REMARKS
   TC - TEMPERATURE IN CELSIUS
  WCI - WIND CHILL INDEX
   HX - HEAT INDEX
  VSB - VISIBILITY
$$



USA.gov is the U.S. government's official web portal to all federal, state and local government web resources and services.